#timestamp,LO_Frequency,Hit,StdDev 
1550059215.9,286046999.2,N
1550059235.7,286047000.7,N
1550059255.6,286047002.8,N
1550059275.4,286047005.8,N
1550059295.2,286047005.0,N
1550059315.1,286047006.3,N
1550059316.0,286047006.3,N
1550059335.8,286047010.2,N
1550059355.6,286047010.2,N
1550059375.5,286047011.6,N
1550059395.3,286047012.6,N
1550059415.2,286047013.4,N
1550059435.9,286047009.7,N
1550059455.7,286047009.4,N
1550059475.6,286047009.7,N
1550059495.4,286047009.8,N
1550059515.2,286047011.3,N
1550059535.1,286047013.4,N
1550059536.0,286047013.4,N
1550059555.8,286047012.7,N
1550059575.7,286047012.5,N
1550059595.5,286047012.6,N
1550059615.3,286047011.6,N
1550059635.2,286047015.3,N
1550059655.0,286047013.3,N
1550059655.9,286047013.3,N
1550059675.7,286047009.8,N
1550059695.6,286047010.1,N
1550059715.4,286047011.0,N
1550059735.3,286047011.9,N
1550059755.1,286047012.2,Y
1550059775.8,286047004.3,P
1550059795.7,286047003.2,N
1550059815.5,286047004.9,N
1550059835.4,286047005.3,N
1550059855.2,286047004.2,N
1550059875.0,286047003.9,N
1550059875.9,286047003.9,N
1550059895.8,286047004.4,N
1550059915.6,286047001.4,N
1550059935.4,286047001.6,N
1550059955.3,286047002.1,N
1550059975.1,286047001.7,N
1550059995.9,286047002.5,N
1550060015.7,286047002.1,N
1550060035.5,286047000.4,N
1550060055.4,286047002.4,N
1550060075.2,286047003.1,N
1550060095.1,286047005.6,N
1550060096.0,286047005.6,N
1550060115.8,286047005.1,N
1550060135.6,286047006.0,N
1550060155.5,286047003.3,N
1550060175.3,286047003.1,N
1550060195.1,286047005.3,N
1550060215.9,286047003.1,N
1550060265.8,286047002.9,E
1550060275.7,286046999.7,N
1550060295.5,286046997.0,P
1550060315.3,286046997.5,N
1550060335.2,286046997.3,N
1550060355.0,286046995.4,Y
1550060355.9,286046995.4,P
1550060375.8,286046998.0,N
1550060395.6,286046999.6,N
1550060415.4,286046995.7,N
1550060435.3,286046995.0,Y
1550060455.1,286046996.5,P
1550060475.9,286046996.6,P
1550060495.7,286046999.0,N
1550060515.5,286046998.4,N
1550060535.4,286046996.7,Y
1550060555.2,286047002.4,P
1550060575.1,286047004.2,N
1550060576.0,286047004.2,N
1550060595.8,286047001.8,N
1550060615.6,286047002.3,N
1550060635.5,286047002.1,N
1550060655.3,286046999.9,N
1550060675.1,286047001.7,N
1550060695.9,286047002.1,N
1550060715.7,286047004.1,N
1550060735.6,286047003.3,N
1550060755.4,286047004.5,N
1550060775.2,286047007.6,Y
1550060795.1,286047002.8,P
1550060796.0,286047002.8,P
1550060815.8,286046999.5,N
1550060835.6,286046996.9,N
1550060855.5,286046996.7,N
1550060875.3,286046995.0,N
1550060895.2,286046995.1,N
1550060915.9,286046993.5,N
1550060935.7,286046993.6,N
1550060955.6,286046996.3,N
1550060975.4,286046993.8,N
1550060995.2,286046993.3,N
1550061015.1,286046994.8,N
1550061016.0,286046994.8,N
1550061035.8,286046994.1,N
1550061055.7,286046995.5,N
1550061075.5,286046995.7,N
1550061095.3,286046993.4,N
1550061115.2,286046997.9,N
1550061135.0,286046995.0,N
1550061135.9,286046995.0,N
1550061155.7,286046995.5,N
1550061175.6,286046993.7,N
1550061195.4,286046993.3,N
1550061215.3,286046994.2,N
1550061235.1,286046999.2,N
1550061236.0,286046999.2,N
1550061255.8,286046998.1,N
1550061275.7,286047001.4,N
1550061295.5,286047001.6,N
1550061315.3,286047002.8,N
1550061335.2,286047000.7,N
1550061355.0,286046998.6,N
1550061355.9,286046998.6,N
1550061375.8,286046998.4,N
1550061395.6,286046998.1,N
1550061415.4,286046998.7,N
1550061435.3,286047001.2,N
1550061455.1,286047001.2,N
1550061475.8,286047001.0,N
1550061495.7,286046998.4,N
1550061515.5,286046998.2,N
1550061535.3,286046998.2,N
1550061555.2,286047000.3,N
1550061575.0,286046998.8,N
1550061575.9,286046998.8,N
1550061595.8,286046997.4,N
1550061615.6,286046995.1,N
1550061635.4,286046997.9,N
1550061655.3,286046995.4,N
1550061675.1,286046997.6,N
1550061695.8,286046995.9,N
1550061715.7,286046994.9,N
1550061735.5,286046996.1,N
1550061755.4,286046996.0,N
1550061775.2,286046995.0,N
1550061795.0,286046995.9,N
1550061795.9,286046995.9,N
1550061815.8,286046994.5,N
1550061835.6,286046993.7,N
1550061855.4,286046993.7,N
1550061875.3,286046994.5,N
1550061895.1,286046995.7,N
1550061915.9,286046997.3,N
1550061935.7,286046996.9,N
1550061955.5,286047000.2,N
1550061975.4,286047001.4,N
1550061995.2,286047006.8,N
1550062015.0,286047006.6,N
1550062015.9,286047006.6,N
1550062035.8,286047008.5,N
1550062055.6,286047007.8,N
1550062075.5,286047006.4,N
1550062095.3,286047006.3,N
1550062115.1,286047006.9,N
1550062135.9,286047006.2,N
1550062155.7,286047006.9,N
1550062175.5,286047006.6,N
1550062195.4,286047005.4,N
1550062215.2,286047001.6,N
1550062235.1,286047002.1,N
1550062236.0,286047002.1,N
1550062255.8,286047001.6,N
1550062275.6,286047002.1,N
1550062295.5,286047003.6,N
1550062315.3,286047001.7,N
1550062335.2,286047002.2,N
1550062355.9,286047005.4,N
1550062375.7,286047006.4,N
1550062395.6,286047005.3,N
1550062415.4,286047003.3,N
1550062435.2,286047003.0,N
1550062455.1,286047007.6,N
1550062456.0,286047007.6,N
1550062475.8,286047004.8,N
1550062495.7,286047004.8,N
1550062515.5,286047004.8,N
1550062535.3,286047005.5,N
1550062555.2,286047003.7,N
1550062575.9,286047001.7,N
1550062595.7,286047002.5,N
1550062615.6,286046999.8,N
1550062635.4,286047002.8,N
1550062655.3,286047002.2,N
1550062675.1,286047002.0,N
1550062676.0,286047002.0,N
1550062695.8,286047001.1,N
1550062715.7,286047000.8,N
1550062735.5,286047001.1,N
1550062755.3,286046998.8,N
1550062775.2,286046999.8,N
1550062795.0,286047002.3,N
1550062795.9,286047002.3,N
